START_TIME,STEP,MOV.,AL01,t_acc.,AL02,t_acc.,E37,t_acc.,H21,t_acc.
1979-07-03 09:00:35.130 ,0,0,0.,24.0,0.,24.0,0.,24.0,0.,24.0
1979-07-03 09:00:59.130 ,0,1,0.,24.0,0.,24.0,0.,24.0,0.,24.0
1979-07-03 09:01:23.130 ,0,0,1.,24.0,0.,24.0,2.,24.0,0.,24.0
1979-07-03 09:01:47.130 ,1,1,0.,24.0,0.,24.0,0.,24.0,0.,24.0
1979-07-03 09:02:11.130 ,1,0,0.,24.0,0.,24.0,0.,24.0,0.,24.0
1979-07-03 09:02:35.130 ,2,1,0.,24.0,0.,24.0,0.,24.0,0.,24.0
1979-07-03 09:02:59.130 ,2,0,0.,24.0,0.,24.0,0.,24.0,0.,24.0
1979-07-03 09:03:23.130 ,3,1,0.,24.0,0.,24.0,0.,24.0,0.,24.0
1979-07-03 09:03:47.130 ,3,0,0.,24.0,0.,24.0,0.,24.0,0.,24.0
1979-07-03 09:04:11.130 ,4,1,0.,24.0,0.,24.0,2.,24.0,0.,24.0
1979-07-03 09:04:35.130 ,4,0,0.,24.0,1.,24.0,0.,24.0,0.,24.0
1979-07-03 09:04:59.130 ,5,1,0.,24.0,0.,24.0,1.,24.0,0.,24.0
1979-07-03 09:05:23.130 ,5,0,1.,24.0,0.,24.0,0.,24.0,0.,24.0
1979-07-03 09:05:47.130 ,6,1,0.,24.0,0.,24.0,0.,24.0,0.,24.0
1979-07-03 09:06:11.130 ,6,0,0.,24.0,0.,24.0,1.,24.0,0.,24.0
1979-07-03 09:06:35.130 ,7,1,9.,24.0,0.,24.0,0.,24.0,0.,24.0
1979-07-03 09:06:59.130 ,7,0,34.,24.0,0.,24.0,0.,24.0,0.,24.0
1979-07-03 09:07:23.130 ,7,1,35.,24.0,0.,24.0,0.,24.0,0.,24.0
1979-07-03 09:07:47.130 ,7,0,25.,24.0,0.,24.0,0.,24.0,0.,24.0
1979-07-03 09:08:11.130 ,6,1,16.,24.0,0.,24.0,0.,24.0,0.,24.0
1979-07-03 09:08:35.130 ,6,0,0.,24.0,0.,24.0,0.,24.0,0.,24.0
1979-07-03 09:08:59.130 ,5,1,1.,24.0,0.,24.0,0.,24.0,0.,24.0
1979-07-03 09:09:23.130 ,5,0,0.,24.0,0.,24.0,0.,24.0,0.,24.0
1979-07-03 09:09:47.130 ,4,1,0.,24.0,0.,24.0,0.,24.0,0.,24.0
1979-07-03 09:10:11.130 ,4,0,0.,24.0,0.,24.0,0.,24.0,0.,24.0
1979-07-03 09:10:35.130 ,3,1,1.,24.0,1.,24.0,0.,24.0,0.,24.0
1979-07-03 09:10:59.130 ,3,0,0.,24.0,1.,24.0,0.,24.0,0.,24.0
1979-07-03 09:11:23.130 ,2,1,0.,24.0,0.,24.0,0.,24.0,0.,24.0
1979-07-03 09:11:47.130 ,2,0,1.,24.0,0.,24.0,0.,24.0,0.,24.0
1979-07-03 09:12:11.130 ,1,1,0.,24.0,1.,24.0,0.,24.0,0.,24.0
1979-07-03 09:12:35.130 ,1,0,0.,24.0,0.,24.0,0.,24.0,0.,24.0
1979-07-03 09:12:59.130 ,0,1,0.,24.0,0.,24.0,0.,24.0,0.,24.0
1979-07-03 09:13:23.130 ,0,0,0.,24.0,0.,24.0,1.,24.0,0.,24.0
1979-07-03 09:13:47.130 ,0,1,1.,24.0,0.,24.0,0.,24.0,0.,24.0
1979-07-03 09:14:11.130 ,0,0,0.,24.0,0.,24.0,0.,24.0,0.,24.0
1979-07-03 09:14:35.130 ,1,1,0.,24.0,0.,24.0,0.,24.0,0.,24.0
1979-07-03 09:14:59.130 ,1,0,0.,24.0,0.,24.0,1.,24.0,0.,24.0
1979-07-03 09:15:23.130 ,2,1,0.,24.0,0.,24.0,0.,24.0,0.,24.0
1979-07-03 09:15:47.130 ,2,0,0.,24.0,0.,24.0,0.,24.0,0.,24.0
1979-07-03 09:16:11.130 ,3,1,0.,24.0,0.,24.0,0.,24.0,0.,24.0
1979-07-03 09:16:35.130 ,0,0,1.,24.0,0.,24.0,0.,24.0,0.,24.0
1979-07-03 09:16:59.130 ,4,1,0.,24.0,0.,24.0,1.,24.0,0.,24.0
1979-07-03 09:17:23.130 ,4,0,0.,24.0,0.,24.0,0.,24.0,0.,24.0
1979-07-03 09:17:47.130 ,5,1,0.,24.0,0.,24.0,0.,24.0,0.,24.0
1979-07-03 09:18:11.130 ,5,0,0.,24.0,0.,24.0,1.,24.0,0.,24.0
1979-07-03 09:18:35.130 ,6,1,0.,24.0,0.,24.0,0.,24.0,0.,24.0
1979-07-03 09:18:59.130 ,6,0,0.,24.0,0.,24.0,0.,24.0,0.,24.0
1979-07-03 09:19:23.130 ,7,1,7.,24.0,0.,24.0,1.,24.0,0.,24.0
1979-07-03 09:19:47.130 ,7,0,23.,24.0,0.,24.0,0.,24.0,0.,24.0
1979-07-03 09:20:11.130 ,7,1,26.,24.0,0.,24.0,0.,24.0,0.,24.0
1979-07-03 09:20:35.130 ,7,0,27.,24.0,0.,24.0,2.,24.0,0.,24.0
1979-07-03 09:20:59.130 ,6,1,32.,24.0,0.,24.0,1.,24.0,0.,24.0
1979-07-03 09:21:23.130 ,6,0,2.,24.0,0.,24.0,0.,24.0,0.,24.0
1979-07-03 09:21:47.130 ,5,1,0.,24.0,0.,24.0,0.,24.0,0.,24.0
1979-07-03 09:22:11.130 ,5,0,0.,24.0,0.,24.0,0.,24.0,0.,24.0
1979-07-03 09:22:35.130 ,4,1,0.,24.0,0.,24.0,0.,24.0,0.,24.0
1979-07-03 09:22:59.130 ,4,0,0.,24.0,0.,24.0,0.,24.0,0.,24.0
1979-07-03 09:23:23.130 ,3,1,1.,24.0,0.,24.0,0.,24.0,0.,24.0
1979-07-03 09:23:47.130 ,3,0,0.,24.0,0.,24.0,0.,24.0,0.,24.0
1979-07-03 09:24:11.130 ,2,1,0.,24.0,0.,24.0,1.,24.0,0.,24.0
1979-07-03 09:24:35.130 ,2,0,1.,24.0,0.,24.0,0.,24.0,0.,24.0
1979-07-03 09:24:59.130 ,1,1,0.,24.0,0.,24.0,0.,24.0,0.,24.0
1979-07-03 09:25:23.130 ,1,0,0.,24.0,0.,24.0,2.,24.0,0.,24.0
1979-07-03 09:25:47.130 ,0,1,0.,24.0,0.,24.0,0.,24.0,0.,24.0
1979-07-03 09:26:11.130 ,0,0,0.,24.0,0.,24.0,0.,24.0,0.,24.0
1979-07-03 09:26:35.130 ,0,1,0.,24.0,0.,24.0,1.,24.0,0.,24.0
1979-07-03 09:26:59.130 ,0,0,0.,24.0,0.,24.0,2.,24.0,0.,24.0
1979-07-03 09:27:23.130 ,1,1,0.,24.0,0.,24.0,0.,24.0,0.,24.0
1979-07-03 09:27:47.130 ,1,0,0.,24.0,0.,24.0,0.,24.0,0.,24.0
1979-07-03 09:28:11.130 ,2,1,1.,24.0,0.,24.0,0.,24.0,0.,24.0
1979-07-03 09:28:35.130 ,2,0,0.,24.0,0.,24.0,0.,24.0,0.,24.0
1979-07-03 09:28:59.130 ,3,1,1.,24.0,0.,24.0,2.,24.0,0.,24.0
1979-07-03 09:29:23.130 ,3,0,0.,24.0,0.,24.0,0.,24.0,0.,24.0
1979-07-03 09:29:47.130 ,4,1,0.,24.0,0.,24.0,0.,24.0,0.,24.0
1979-07-03 09:30:11.130 ,4,0,0.,24.0,0.,24.0,1.,24.0,0.,24.0
1979-07-03 09:30:35.130 ,5,1,0.,24.0,0.,24.0,0.,24.0,0.,24.0
1979-07-03 09:30:59.130 ,5,0,0.,24.0,0.,24.0,0.,24.0,0.,24.0
1979-07-03 09:31:23.130 ,6,1,0.,24.0,0.,24.0,1.,24.0,0.,24.0
1979-07-03 09:31:47.130 ,6,0,0.,24.0,0.,24.0,1.,24.0,0.,24.0
1979-07-03 09:32:11.130 ,7,1,3.,24.0,0.,24.0,1.,24.0,0.,24.0
1979-07-03 09:32:35.130 ,7,0,35.,24.0,0.,24.0,0.,24.0,0.,24.0
1979-07-03 09:32:59.130 ,7,1,38.,24.0,0.,24.0,0.,24.0,0.,24.0
1979-07-03 09:33:23.130 ,7,0,35.,24.0,0.,24.0,1.,24.0,0.,24.0
1979-07-03 09:33:47.130 ,6,1,26.,24.0,0.,24.0,0.,24.0,0.,24.0
1979-07-03 09:34:11.130 ,6,0,0.,24.0,0.,24.0,0.,24.0,0.,24.0
1979-07-03 09:34:35.130 ,5,1,0.,24.0,0.,24.0,0.,24.0,0.,24.0
1979-07-03 09:34:59.130 ,5,0,1.,24.0,0.,24.0,0.,24.0,0.,24.0
1979-07-03 09:35:23.130 ,4,1,0.,24.0,0.,24.0,1.,24.0,0.,24.0
1979-07-03 09:35:47.130 ,4,0,0.,24.0,0.,24.0,0.,24.0,0.,24.0
1979-07-03 09:36:11.130 ,3,1,1.,24.0,0.,24.0,1.,24.0,0.,24.0
1979-07-03 09:36:35.130 ,3,0,0.,24.0,0.,24.0,0.,24.0,0.,24.0
1979-07-03 09:36:59.130 ,2,1,0.,24.0,1.,24.0,0.,24.0,0.,24.0
1979-07-03 09:37:23.130 ,2,0,0.,24.0,0.,24.0,1.,24.0,0.,24.0
1979-07-03 09:37:47.130 ,1,1,0.,24.0,0.,24.0,0.,24.0,0.,24.0
1979-07-03 09:38:11.130 ,1,0,0.,24.0,0.,24.0,0.,24.0,0.,24.0
1979-07-03 09:38:35.130 ,0,1,1.,24.0,0.,24.0,1.,24.0,0.,24.0
1979-07-03 09:38:59.130 ,0,0,0.,24.0,0.,24.0,0.,24.0,0.,24.0
1979-07-03 09:39:23.130 ,0,1,0.,24.0,0.,24.0,0.,24.0,0.,24.0
1979-07-03 09:39:47.130 ,0,0,0.,24.0,0.,24.0,0.,24.0,0.,24.0
1979-07-03 09:40:11.130 ,1,1,0.,24.0,0.,24.0,0.,24.0,0.,24.0
1979-07-03 09:40:35.130 ,1,0,0.,24.0,0.,24.0,0.,24.0,0.,24.0
1979-07-03 09:40:59.130 ,2,1,0.,24.0,0.,24.0,0.,24.0,0.,24.0
1979-07-03 09:41:23.130 ,2,0,0.,24.0,0.,24.0,0.,24.0,0.,24.0
1979-07-03 09:41:47.130 ,3,1,0.,24.0,0.,24.0,0.,24.0,0.,24.0
1979-07-03 09:42:11.130 ,3,0,1.,24.0,0.,24.0,0.,24.0,0.,24.0
1979-07-03 09:42:35.130 ,4,1,0.,24.0,0.,24.0,1.,24.0,0.,24.0
1979-07-03 09:42:59.130 ,4,0,0.,24.0,0.,24.0,0.,24.0,0.,24.0
1979-07-03 09:43:23.130 ,5,1,0.,24.0,0.,24.0,0.,24.0,0.,24.0
1979-07-03 09:43:47.130 ,5,0,0.,24.0,0.,24.0,0.,24.0,0.,24.0
1979-07-03 09:44:11.130 ,6,1,1.,24.0,0.,24.0,1.,24.0,0.,24.0
1979-07-03 09:44:35.130 ,6,0,0.,24.0,0.,24.0,0.,24.0,0.,24.0
1979-07-03 09:44:59.130 ,7,1,4.,24.0,0.,24.0,0.,24.0,0.,24.0
1979-07-03 09:45:23.130 ,7,0,28.,24.0,0.,24.0,0.,24.0,0.,24.0
1979-07-03 09:45:47.130 ,7,1,27.,24.0,0.,24.0,0.,24.0,0.,24.0
1979-07-03 09:46:11.130 ,7,0,38.,24.0,0.,24.0,0.,24.0,0.,24.0
1979-07-03 09:46:35.130 ,6,1,24.,24.0,0.,24.0,0.,24.0,0.,24.0
1979-07-03 09:46:59.130 ,6,0,2.,24.0,0.,24.0,0.,24.0,0.,24.0
1979-07-03 09:47:23.130 ,5,1,0.,24.0,0.,24.0,0.,24.0,0.,24.0
1979-07-03 09:47:47.130 ,5,0,0.,24.0,0.,24.0,0.,24.0,0.,24.0
1979-07-03 09:48:11.130 ,4,1,0.,24.0,0.,24.0,0.,24.0,0.,24.0
1979-07-03 09:48:35.130 ,4,0,1.,24.0,0.,24.0,0.,24.0,0.,24.0
1979-07-03 09:48:59.130 ,3,1,0.,24.0,0.,24.0,0.,24.0,0.,24.0
1979-07-03 09:49:23.130 ,3,0,0.,24.0,0.,24.0,0.,24.0,0.,24.0
1979-07-03 09:49:47.130 ,2,1,0.,24.0,0.,24.0,0.,24.0,0.,24.0
1979-07-03 09:50:11.130 ,2,0,0.,24.0,0.,24.0,0.,24.0,0.,24.0
1979-07-03 09:50:35.130 ,1,1,0.,24.0,0.,24.0,0.,24.0,0.,24.0
1979-07-03 09:50:59.130 ,1,0,0.,24.0,0.,24.0,0.,24.0,0.,24.0
1979-07-03 09:51:23.130 ,0,0,0.,24.0,0.,24.0,0.,24.0,0.,24.0
1979-07-03 09:51:47.130 ,0,0,0.,24.0,0.,24.0,0.,24.0,0.,24.0
1979-07-03 09:52:11.130 ,7,0,16.,24.0,0.,24.0,0.,24.0,0.,24.0
1979-07-03 09:52:35.130 ,7,0,37.,24.0,0.,24.0,0.,24.0,0.,24.0
1979-07-03 09:52:59.130 ,7,0,28.,24.0,0.,24.0,0.,24.0,0.,24.0
1979-07-03 09:53:23.130 ,7,0,31.,24.0,0.,24.0,0.,24.0,0.,24.0
1979-07-03 09:53:47.130 ,7,0,27.,24.0,0.,24.0,1.,24.0,0.,24.0
1979-07-03 09:54:11.130 ,7,0,35.,24.0,0.,24.0,0.,24.0,0.,24.0
1979-07-03 09:54:35.130 ,7,0,27.,24.0,0.,24.0,0.,24.0,0.,24.0
1979-07-03 09:54:59.130 ,7,0,31.,24.0,0.,24.0,0.,24.0,0.,24.0
1979-07-03 09:55:23.130 ,5,1,19.,24.0,0.,24.0,0.,24.0,0.,24.0
1979-07-03 09:55:47.130 ,1,1,0.,24.0,0.,24.0,1.,24.0,0.,24.0
1979-07-03 09:56:11.130 ,2,1,0.,24.0,0.,24.0,1.,24.0,0.,24.0
1979-07-03 09:56:35.130 ,6,1,0.,24.0,0.,24.0,0.,24.0,0.,24.0
1979-07-03 09:56:59.130 ,5,1,14.,24.0,0.,24.0,0.,24.0,0.,24.0
1979-07-03 09:57:23.130 ,1,1,0.,24.0,0.,24.0,0.,24.0,0.,24.0
1979-07-03 09:57:47.130 ,2,1,1.,24.0,0.,24.0,1.,24.0,0.,24.0
1979-07-03 09:58:11.130 ,6,1,0.,24.0,0.,24.0,0.,24.0,0.,24.0
1979-07-03 09:58:35.130 ,5,1,16.,24.0,1.,24.0,0.,24.0,0.,24.0
1979-07-03 09:58:59.130 ,1,1,0.,24.0,0.,24.0,0.,24.0,0.,24.0
1979-07-03 09:59:23.130 ,2,1,0.,24.0,0.,24.0,1.,24.0,0.,24.0
1979-07-03 09:59:47.130 ,6,1,2.,24.0,0.,24.0,1.,24.0,0.,24.0
1979-07-03 10:00:11.120 ,5,1,11.,24.0,0.,24.0,1.,24.0,0.,24.0
1979-07-03 10:00:35.130 ,1,1,0.,24.0,0.,24.0,0.,24.0,0.,24.0
1979-07-03 10:00:59.130 ,2,1,0.,24.0,0.,24.0,0.,24.0,0.,24.0
1979-07-03 10:01:23.130 ,6,1,0.,24.0,1.,24.0,1.,24.0,0.,24.0
1979-07-03 10:01:47.130 ,5,1,11.,24.0,0.,24.0,0.,24.0,0.,24.0
1979-07-03 10:02:11.130 ,1,1,0.,24.0,0.,24.0,0.,24.0,0.,24.0
1979-07-03 10:02:35.130 ,2,1,0.,24.0,0.,24.0,1.,24.0,0.,24.0
1979-07-03 10:02:59.130 ,6,1,0.,24.0,0.,24.0,0.,24.0,0.,24.0
1979-07-03 10:03:23.130 ,5,1,,0,,0,,0,,0
1979-07-03 10:03:47.130 ,1,1,0.,24.0,0.,24.0,0.,24.0,0.,24.0
1979-07-03 10:04:11.130 ,2,1,0.,24.0,0.,24.0,0.,24.0,0.,24.0
1979-07-03 10:04:35.130 ,6,1,0.,24.0,0.,24.0,0.,24.0,0.,24.0
1979-07-03 10:04:59.130 ,5,1,13.,24.0,0.,24.0,0.,24.0,0.,24.0
1979-07-03 10:05:23.130 ,1,1,1.,24.0,0.,24.0,0.,24.0,0.,24.0
1979-07-03 10:05:47.130 ,0,0,0.,24.0,0.,24.0,0.,24.0,0.,24.0
1979-07-03 10:06:11.130 ,0,0,0.,24.0,0.,24.0,0.,24.0,0.,24.0
1979-07-03 10:06:35.130 ,5,1,16.,24.0,0.,24.0,0.,24.0,0.,24.0
1979-07-03 10:06:59.130 ,5,0,0.,24.0,0.,24.0,0.,24.0,0.,24.0
1979-07-03 10:07:23.130 ,4,1,0.,24.0,0.,24.0,0.,24.0,0.,24.0
1979-07-03 10:07:47.130 ,4,0,0.,24.0,0.,24.0,0.,24.0,0.,24.0
1979-07-03 10:08:11.130 ,3,1,0.,24.0,0.,24.0,0.,24.0,0.,24.0
1979-07-03 10:08:35.130 ,3,0,0.,24.0,0.,24.0,1.,24.0,0.,24.0
1979-07-03 10:08:59.130 ,2,1,0.,24.0,0.,24.0,1.,24.0,0.,24.0
1979-07-03 10:09:23.130 ,2,0,0.,24.0,0.,24.0,0.,24.0,0.,24.0
1979-07-03 10:09:47.130 ,1,1,0.,24.0,0.,24.0,1.,24.0,0.,24.0
1979-07-03 10:10:11.130 ,1,0,0.,24.0,0.,24.0,1.,24.0,0.,24.0
1979-07-03 10:10:35.120 ,0,1,0.,24.0,0.,24.0,1.,24.0,0.,24.0
1979-07-03 10:10:59.120 ,0,0,0.,24.0,0.,24.0,0.,24.0,0.,24.0
1979-07-03 10:11:23.120 ,0,1,0.,24.0,0.,24.0,0.,24.0,0.,24.0
1979-07-03 10:11:47.120 ,0,0,0.,24.0,0.,24.0,1.,24.0,0.,24.0
1979-07-03 10:12:11.120 ,1,1,0.,24.0,0.,24.0,0.,24.0,0.,24.0
1979-07-03 10:12:35.120 ,1,0,0.,24.0,0.,24.0,1.,24.0,0.,24.0
1979-07-03 10:12:59.120 ,2,1,0.,24.0,0.,24.0,0.,24.0,0.,24.0
1979-07-03 10:13:23.120 ,2,0,0.,24.0,0.,24.0,0.,24.0,0.,24.0
1979-07-03 10:13:47.120 ,3,1,1.,24.0,0.,24.0,0.,24.0,0.,24.0
1979-07-03 10:14:11.120 ,3,0,0.,24.0,0.,24.0,0.,24.0,0.,24.0
1979-07-03 10:14:35.120 ,4,1,0.,24.0,0.,24.0,2.,24.0,0.,24.0
1979-07-03 10:14:59.120 ,4,0,0.,24.0,0.,24.0,0.,24.0,0.,24.0
1979-07-03 10:15:23.120 ,5,1,0.,24.0,0.,24.0,1.,24.0,0.,24.0
1979-07-03 10:15:47.120 ,5,0,1.,24.0,0.,24.0,1.,24.0,0.,24.0
1979-07-03 10:16:11.120 ,6,1,0.,24.0,0.,24.0,1.,24.0,0.,24.0
1979-07-03 10:16:35.120 ,6,0,0.,24.0,1.,24.0,0.,24.0,0.,24.0
1979-07-03 10:16:59.120 ,7,1,7.,24.0,0.,24.0,1.,24.0,0.,24.0
1979-07-03 10:17:23.120 ,7,0,35.,24.0,0.,24.0,0.,24.0,0.,24.0
1979-07-03 10:17:47.120 ,7,1,25.,24.0,0.,24.0,1.,24.0,0.,24.0
1979-07-03 10:18:11.120 ,7,0,27.,24.0,0.,24.0,1.,24.0,0.,24.0
1979-07-03 10:18:35.120 ,6,1,20.,24.0,0.,24.0,0.,24.0,0.,24.0
1979-07-03 10:18:59.120 ,6,0,0.,24.0,0.,24.0,0.,24.0,0.,24.0
1979-07-03 10:19:23.120 ,5,1,0.,24.0,0.,24.0,0.,24.0,0.,24.0
1979-07-03 10:19:47.120 ,5,0,0.,24.0,0.,24.0,0.,24.0,0.,24.0
1979-07-03 10:20:11.120 ,4,1,0.,24.0,0.,24.0,0.,24.0,0.,24.0
1979-07-03 10:20:35.120 ,4,0,0.,24.0,0.,24.0,0.,24.0,0.,24.0
1979-07-03 10:20:59.120 ,3,1,0.,24.0,0.,24.0,0.,24.0,0.,24.0
1979-07-03 10:21:23.120 ,3,0,0.,24.0,0.,24.0,0.,24.0,0.,24.0
1979-07-03 10:21:47.120 ,2,1,1.,24.0,0.,24.0,0.,24.0,0.,24.0
1979-07-03 10:22:11.120 ,2,0,0.,24.0,0.,24.0,0.,24.0,0.,24.0
1979-07-03 10:22:35.120 ,1,1,0.,24.0,0.,24.0,0.,24.0,0.,24.0
1979-07-03 10:22:59.120 ,1,0,0.,24.0,0.,24.0,1.,24.0,0.,24.0
1979-07-03 10:23:23.120 ,0,1,1.,24.0,0.,24.0,0.,24.0,0.,24.0
1979-07-03 10:23:47.120 ,0,0,0.,24.0,0.,24.0,1.,24.0,0.,24.0
1979-07-03 10:24:11.120 ,0,1,0.,24.0,0.,24.0,2.,24.0,0.,24.0
1979-07-03 10:24:35.120 ,0,0,1.,24.0,1.,24.0,0.,24.0,0.,24.0
1979-07-03 10:24:59.120 ,1,1,0.,24.0,1.,24.0,0.,24.0,0.,24.0
1979-07-03 10:25:23.120 ,1,0,0.,24.0,0.,24.0,1.,24.0,0.,24.0
1979-07-03 10:25:47.120 ,2,1,0.,24.0,0.,24.0,0.,24.0,0.,24.0
1979-07-03 10:26:11.120 ,2,0,1.,24.0,0.,24.0,1.,24.0,0.,24.0
1979-07-03 10:26:35.120 ,0,0,0.,24.0,0.,24.0,0.,24.0,0.,24.0
1979-07-03 10:26:59.120 ,0,0,0.,24.0,0.,24.0,0.,24.0,0.,24.0
1979-07-03 10:27:23.120 ,4,1,0.,24.0,0.,24.0,0.,24.0,0.,24.0
1979-07-03 10:27:47.120 ,4,0,0.,24.0,0.,24.0,0.,24.0,0.,24.0
1979-07-03 10:28:11.120 ,5,1,0.,24.0,0.,24.0,0.,24.0,0.,24.0
1979-07-03 10:28:35.120 ,5,0,0.,24.0,0.,24.0,0.,24.0,0.,24.0
1979-07-03 10:28:59.120 ,6,1,0.,24.0,0.,24.0,0.,24.0,0.,24.0
1979-07-03 10:29:23.120 ,6,0,0.,24.0,0.,24.0,0.,24.0,0.,24.0
1979-07-03 10:29:47.120 ,7,1,12.,24.0,0.,24.0,0.,24.0,0.,24.0
1979-07-03 10:30:11.120 ,7,0,23.,24.0,0.,24.0,2.,24.0,0.,24.0
1979-07-03 10:30:35.120 ,7,1,31.,24.0,0.,24.0,0.,24.0,0.,24.0
1979-07-03 10:30:59.120 ,7,0,20.,24.0,0.,24.0,0.,24.0,0.,24.0
1979-07-03 10:31:23.120 ,6,1,19.,24.0,0.,24.0,0.,24.0,0.,24.0
1979-07-03 10:31:47.120 ,6,0,1.,24.0,0.,24.0,0.,24.0,0.,24.0
1979-07-03 10:32:11.120 ,5,1,0.,24.0,0.,24.0,0.,24.0,0.,24.0
1979-07-03 10:32:35.120 ,0,0,0.,24.0,0.,24.0,0.,24.0,0.,24.0
1979-07-03 10:33:13.520 ,0,0,,0,,0,,0,,0
1979-07-03 10:33:23.120 ,0,0,1.,24.0,0.,24.0,2.,24.0,0.,24.0
1979-07-03 10:33:47.120 ,3,1,1.,24.0,0.,24.0,0.,24.0,0.,24.0
1979-07-03 10:34:11.120 ,3,0,0.,24.0,0.,24.0,0.,24.0,0.,24.0
1979-07-03 10:34:35.120 ,2,1,0.,24.0,0.,24.0,0.,24.0,0.,24.0
1979-07-03 10:34:59.120 ,2,0,0.,24.0,0.,24.0,0.,24.0,0.,24.0
1979-07-03 10:35:23.120 ,1,1,0.,24.0,0.,24.0,0.,24.0,0.,24.0
1979-07-03 10:35:47.120 ,1,0,0.,24.0,0.,24.0,0.,24.0,0.,24.0
1979-07-03 10:36:11.120 ,0,1,0.,24.0,0.,24.0,0.,24.0,0.,24.0
1979-07-03 10:36:35.120 ,0,0,0.,24.0,0.,24.0,1.,24.0,0.,24.0
1979-07-03 10:36:59.120 ,0,1,0.,24.0,0.,24.0,1.,24.0,0.,24.0
1979-07-03 10:37:23.120 ,0,0,0.,24.0,0.,24.0,1.,24.0,0.,24.0
1979-07-03 10:37:47.120 ,1,1,0.,24.0,0.,24.0,0.,24.0,0.,24.0
1979-07-03 10:38:11.120 ,1,0,0.,24.0,0.,24.0,0.,24.0,0.,24.0
1979-07-03 10:38:35.120 ,2,1,0.,24.0,0.,24.0,0.,24.0,0.,24.0
1979-07-03 10:38:59.120 ,2,0,0.,24.0,0.,24.0,0.,24.0,0.,24.0
1979-07-03 10:39:23.120 ,3,1,0.,24.0,1.,24.0,0.,24.0,0.,24.0
1979-07-03 10:39:47.120 ,3,0,0.,24.0,0.,24.0,0.,24.0,0.,24.0
1979-07-03 10:40:11.120 ,4,1,0.,24.0,0.,24.0,0.,24.0,0.,24.0
1979-07-03 10:40:35.120 ,4,0,0.,24.0,0.,24.0,0.,24.0,0.,24.0
1979-07-03 10:40:59.120 ,5,1,0.,24.0,1.,24.0,0.,24.0,0.,24.0
1979-07-03 10:41:23.120 ,5,0,0.,24.0,0.,24.0,0.,24.0,0.,24.0
1979-07-03 10:41:47.120 ,6,1,0.,24.0,0.,24.0,0.,24.0,0.,24.0
1979-07-03 10:42:11.120 ,6,0,1.,24.0,0.,24.0,0.,24.0,0.,24.0
1979-07-03 10:42:35.120 ,7,0,3.,24.0,0.,24.0,0.,24.0,0.,24.0
1979-07-03 10:42:59.120 ,7,0,35.,24.0,0.,24.0,0.,24.0,0.,24.0
1979-07-03 10:43:23.120 ,5,1,27.,24.0,0.,24.0,0.,24.0,0.,24.0
1979-07-03 10:43:47.120 ,1,1,0.,24.0,0.,24.0,0.,24.0,0.,24.0
1979-07-03 10:44:11.120 ,2,1,0.,24.0,0.,24.0,0.,24.0,0.,24.0
1979-07-03 10:44:35.120 ,6,1,0.,24.0,0.,24.0,0.,24.0,0.,24.0
1979-07-03 10:44:59.120 ,5,1,24.,24.0,0.,24.0,0.,24.0,0.,24.0
1979-07-03 10:45:23.120 ,1,1,0.,24.0,0.,24.0,0.,24.0,0.,24.0
1979-07-03 10:45:47.120 ,2,1,0.,24.0,0.,24.0,0.,24.0,0.,24.0
1979-07-03 10:46:11.120 ,6,1,0.,24.0,0.,24.0,0.,24.0,0.,24.0
1979-07-03 10:46:35.120 ,5,1,20.,24.0,0.,24.0,1.,24.0,0.,24.0
1979-07-03 10:46:59.120 ,1,1,0.,24.0,0.,24.0,0.,24.0,0.,24.0
1979-07-03 10:47:23.120 ,2,1,0.,24.0,0.,24.0,0.,24.0,0.,24.0
1979-07-03 10:47:47.120 ,6,1,0.,24.0,0.,24.0,1.,24.0,0.,24.0
1979-07-03 10:48:11.120 ,5,1,17.,24.0,0.,24.0,0.,24.0,0.,24.0
1979-07-03 10:48:35.120 ,1,1,1.,24.0,0.,24.0,0.,24.0,0.,24.0
1979-07-03 10:48:59.120 ,2,1,0.,24.0,0.,24.0,0.,24.0,0.,24.0
1979-07-03 10:49:23.120 ,6,1,0.,24.0,0.,24.0,0.,24.0,0.,24.0
1979-07-03 10:49:47.120 ,5,1,17.,24.0,0.,24.0,0.,24.0,0.,24.0
1979-07-03 10:50:11.120 ,1,1,0.,24.0,0.,24.0,0.,24.0,0.,24.0
1979-07-03 10:50:35.120 ,2,1,1.,24.0,0.,24.0,2.,24.0,0.,24.0
1979-07-03 10:50:59.120 ,6,1,0.,24.0,0.,24.0,0.,24.0,0.,24.0
1979-07-03 10:51:23.120 ,5,1,16.,24.0,0.,24.0,1.,24.0,0.,24.0
1979-07-03 10:51:47.120 ,1,1,0.,24.0,0.,24.0,0.,24.0,0.,24.0
1979-07-03 10:52:11.120 ,2,1,0.,24.0,0.,24.0,0.,24.0,0.,24.0
1979-07-03 10:52:35.120 ,6,1,0.,24.0,0.,24.0,1.,24.0,0.,24.0
1979-07-03 10:52:59.120 ,5,1,11.,24.0,0.,24.0,0.,24.0,0.,24.0
1979-07-03 10:53:23.120 ,1,1,0.,24.0,0.,24.0,0.,24.0,0.,24.0
1979-07-03 10:53:47.120 ,0,0,0.,24.0,0.,24.0,1.,24.0,0.,24.0
1979-07-03 10:54:11.120 ,0,0,0.,24.0,0.,24.0,0.,24.0,0.,24.0
1979-07-03 10:54:35.120 ,5,1,20.,24.0,0.,24.0,0.,24.0,0.,24.0
1979-07-03 10:54:59.120 ,5,0,0.,24.0,1.,24.0,0.,24.0,0.,24.0
1979-07-03 10:55:23.120 ,4,1,1.,24.0,0.,24.0,1.,24.0,0.,24.0
1979-07-03 10:55:47.120 ,4,0,1.,24.0,0.,24.0,1.,24.0,0.,24.0
1979-07-03 10:56:11.120 ,3,1,1.,24.0,0.,24.0,0.,24.0,0.,24.0
1979-07-03 10:56:35.120 ,3,0,0.,24.0,0.,24.0,0.,24.0,0.,24.0
1979-07-03 10:56:59.120 ,2,1,0.,24.0,0.,24.0,0.,24.0,0.,24.0
1979-07-03 10:57:23.120 ,2,0,1.,24.0,0.,24.0,2.,24.0,0.,24.0
1979-07-03 10:57:47.120 ,1,1,0.,24.0,0.,24.0,1.,24.0,0.,24.0
1979-07-03 10:58:11.120 ,1,0,0.,24.0,1.,24.0,0.,24.0,0.,24.0
1979-07-03 10:58:35.120 ,0,1,0.,24.0,0.,24.0,1.,24.0,0.,24.0
1979-07-03 10:58:59.120 ,0,0,0.,24.0,0.,24.0,0.,24.0,0.,24.0
1979-07-03 10:59:23.120 ,0,1,0.,24.0,1.,24.0,1.,24.0,0.,24.0
1979-07-03 10:59:47.120 ,0,0,0.,24.0,0.,24.0,0.,24.0,0.,24.0
1979-07-03 11:00:11.120 ,1,1,0.,24.0,0.,24.0,0.,24.0,0.,24.0
1979-07-03 11:00:35.120 ,1,0,0.,24.0,0.,24.0,1.,24.0,0.,24.0
1979-07-03 11:00:59.120 ,2,1,1.,24.0,0.,24.0,0.,24.0,0.,24.0
1979-07-03 11:01:23.120 ,2,0,0.,24.0,0.,24.0,0.,24.0,0.,24.0
1979-07-03 11:01:47.120 ,3,1,0.,24.0,0.,24.0,0.,24.0,0.,24.0
1979-07-03 11:02:11.120 ,3,0,0.,24.0,0.,24.0,0.,24.0,0.,24.0
1979-07-03 11:02:35.120 ,4,1,0.,24.0,0.,24.0,0.,24.0,0.,24.0
1979-07-03 11:02:59.120 ,4,0,0.,24.0,0.,24.0,0.,24.0,0.,24.0
1979-07-03 11:03:23.120 ,5,1,0.,24.0,0.,24.0,0.,24.0,0.,24.0
1979-07-03 11:03:47.120 ,5,0,0.,24.0,0.,24.0,1.,24.0,0.,24.0
1979-07-03 11:04:11.120 ,6,1,1.,24.0,0.,24.0,0.,24.0,0.,24.0
1979-07-03 11:04:35.120 ,6,0,0.,24.0,0.,24.0,0.,24.0,0.,24.0
1979-07-03 11:04:59.120 ,7,1,9.,24.0,0.,24.0,0.,24.0,0.,24.0
1979-07-03 11:05:23.120 ,7,0,37.,24.0,0.,24.0,0.,24.0,0.,24.0
1979-07-03 11:05:47.120 ,7,1,32.,24.0,0.,24.0,0.,24.0,0.,24.0
1979-07-03 11:06:11.120 ,7,0,29.,24.0,0.,24.0,0.,24.0,0.,24.0
1979-07-03 11:06:35.120 ,6,1,24.,24.0,0.,24.0,0.,24.0,0.,24.0
1979-07-03 11:06:59.120 ,6,0,1.,24.0,0.,24.0,0.,24.0,0.,24.0
1979-07-03 11:07:23.120 ,5,1,0.,24.0,0.,24.0,0.,24.0,0.,24.0
1979-07-03 11:07:47.120 ,5,0,0.,24.0,0.,24.0,2.,24.0,0.,24.0
1979-07-03 11:08:11.120 ,4,1,0.,24.0,0.,24.0,2.,24.0,0.,24.0
1979-07-03 11:08:35.120 ,4,0,0.,24.0,0.,24.0,0.,24.0,0.,24.0
1979-07-03 11:08:59.120 ,3,1,0.,24.0,0.,24.0,0.,24.0,0.,24.0
1979-07-03 11:09:23.120 ,3,0,0.,24.0,0.,24.0,0.,24.0,0.,24.0
1979-07-03 11:09:47.120 ,2,1,1.,24.0,0.,24.0,1.,24.0,0.,24.0
1979-07-03 11:10:11.120 ,2,0,0.,24.0,0.,24.0,0.,24.0,0.,24.0
1979-07-03 11:10:35.120 ,1,1,0.,24.0,0.,24.0,0.,24.0,0.,24.0
1979-07-03 11:10:59.120 ,1,0,0.,24.0,0.,24.0,0.,24.0,0.,24.0
1979-07-03 11:11:23.120 ,0,1,1.,24.0,0.,24.0,0.,24.0,0.,24.0
1979-07-03 11:11:47.120 ,0,0,0.,24.0,0.,24.0,0.,24.0,0.,24.0
1979-07-03 11:12:11.120 ,0,1,0.,24.0,0.,24.0,0.,24.0,0.,24.0
1979-07-03 11:12:35.120 ,0,0,0.,24.0,0.,24.0,0.,24.0,0.,24.0
1979-07-03 11:12:59.120 ,1,1,0.,24.0,0.,24.0,0.,24.0,0.,24.0
1979-07-03 11:13:23.120 ,1,0,0.,24.0,0.,24.0,0.,24.0,0.,24.0
1979-07-03 11:13:47.120 ,2,1,0.,24.0,0.,24.0,0.,24.0,0.,24.0
1979-07-03 11:14:11.120 ,2,0,0.,24.0,0.,24.0,1.,24.0,0.,24.0
1979-07-03 11:14:35.120 ,3,1,0.,24.0,0.,24.0,0.,24.0,0.,24.0
1979-07-03 11:14:59.120 ,3,0,0.,24.0,0.,24.0,0.,24.0,0.,24.0
1979-07-03 11:15:23.120 ,4,1,0.,24.0,0.,24.0,0.,24.0,0.,24.0
1979-07-03 11:15:47.120 ,4,0,0.,24.0,1.,24.0,0.,24.0,0.,24.0
1979-07-03 11:16:11.120 ,5,1,0.,24.0,0.,24.0,0.,24.0,0.,24.0
1979-07-03 11:16:35.120 ,5,0,0.,24.0,1.,24.0,1.,24.0,0.,24.0
1979-07-03 11:16:59.120 ,6,1,0.,24.0,0.,24.0,1.,24.0,0.,24.0
1979-07-03 11:17:23.120 ,6,0,0.,24.0,0.,24.0,0.,24.0,0.,24.0
1979-07-03 11:17:47.120 ,7,1,5.,24.0,0.,24.0,1.,24.0,0.,24.0
1979-07-03 11:18:11.120 ,7,0,38.,24.0,0.,24.0,1.,24.0,0.,24.0
1979-07-03 11:18:35.120 ,7,1,35.,24.0,0.,24.0,0.,24.0,0.,24.0
1979-07-03 11:18:59.120 ,7,0,38.,24.0,0.,24.0,2.,24.0,0.,24.0
1979-07-03 11:19:23.120 ,6,1,24.,24.0,0.,24.0,0.,24.0,0.,24.0
1979-07-03 11:19:47.120 ,6,0,0.,24.0,0.,24.0,0.,24.0,0.,24.0
1979-07-03 11:20:11.120 ,5,1,0.,24.0,0.,24.0,0.,24.0,0.,24.0
1979-07-03 11:20:35.120 ,5,0,0.,24.0,0.,24.0,1.,24.0,0.,24.0
1979-07-03 11:20:59.120 ,4,1,1.,24.0,0.,24.0,1.,24.0,0.,24.0
1979-07-03 11:21:23.120 ,4,0,1.,24.0,0.,24.0,0.,24.0,0.,24.0
1979-07-03 11:21:47.120 ,3,1,0.,24.0,0.,24.0,0.,24.0,0.,24.0
1979-07-03 11:22:11.120 ,3,0,1.,24.0,0.,24.0,0.,24.0,0.,24.0
1979-07-03 11:22:35.120 ,2,1,0.,24.0,0.,24.0,0.,24.0,0.,24.0
1979-07-03 11:22:59.120 ,2,0,0.,24.0,0.,24.0,0.,24.0,0.,24.0
1979-07-03 11:23:23.120 ,1,1,0.,24.0,0.,24.0,0.,24.0,0.,24.0
1979-07-03 11:23:47.120 ,1,0,0.,24.0,0.,24.0,1.,24.0,0.,24.0
1979-07-03 11:24:11.120 ,0,1,0.,24.0,0.,24.0,0.,24.0,0.,24.0
1979-07-03 11:24:35.120 ,0,0,0.,24.0,0.,24.0,0.,24.0,0.,24.0
1979-07-03 11:24:59.120 ,0,1,0.,24.0,0.,24.0,0.,24.0,0.,24.0
1979-07-03 11:25:23.120 ,0,0,0.,24.0,0.,24.0,0.,24.0,0.,24.0
1979-07-03 11:25:47.120 ,1,1,0.,24.0,0.,24.0,0.,24.0,0.,24.0
1979-07-03 11:26:11.120 ,1,0,0.,24.0,0.,24.0,0.,24.0,0.,24.0
1979-07-03 11:26:35.120 ,2,1,0.,24.0,0.,24.0,0.,24.0,0.,24.0
1979-07-03 11:26:59.120 ,2,0,0.,24.0,0.,24.0,0.,24.0,0.,24.0
1979-07-03 11:27:23.120 ,3,1,1.,24.0,0.,24.0,2.,24.0,0.,24.0
1979-07-03 11:27:47.120 ,3,0,0.,24.0,0.,24.0,0.,24.0,0.,24.0
1979-07-03 11:28:11.120 ,4,1,0.,24.0,0.,24.0,0.,24.0,0.,24.0
1979-07-03 11:28:35.120 ,4,0,0.,24.0,0.,24.0,0.,24.0,0.,24.0
1979-07-03 11:28:59.120 ,5,1,1.,24.0,0.,24.0,0.,24.0,0.,24.0
1979-07-03 11:29:23.120 ,5,0,0.,24.0,0.,24.0,0.,24.0,0.,24.0
1979-07-03 11:29:47.120 ,6,1,0.,24.0,0.,24.0,0.,24.0,0.,24.0
1979-07-03 11:30:11.120 ,6,0,0.,24.0,0.,24.0,0.,24.0,0.,24.0
1979-07-03 11:30:35.120 ,7,0,8.,24.0,0.,24.0,0.,24.0,0.,24.0
1979-07-03 11:30:59.120 ,7,0,34.,24.0,0.,24.0,0.,24.0,0.,24.0
1979-07-03 11:31:23.120 ,5,1,22.,24.0,0.,24.0,0.,24.0,0.,24.0
1979-07-03 11:31:47.120 ,1,1,0.,24.0,0.,24.0,0.,24.0,0.,24.0
1979-07-03 11:32:11.120 ,2,1,0.,24.0,0.,24.0,0.,24.0,0.,24.0
1979-07-03 11:32:35.120 ,6,1,0.,24.0,0.,24.0,0.,24.0,0.,24.0
1979-07-03 11:32:59.120 ,5,1,15.,24.0,0.,24.0,0.,24.0,0.,24.0
1979-07-03 11:33:23.120 ,1,1,0.,24.0,0.,24.0,1.,24.0,0.,24.0
1979-07-03 11:33:47.120 ,2,1,0.,24.0,0.,24.0,0.,24.0,0.,24.0
1979-07-03 11:34:11.120 ,6,1,0.,24.0,0.,24.0,0.,24.0,0.,24.0